Simultaneous Nadir Overpasses (SNOs) Predictions

Prediction of SNOs over PacNW region [( 10.00, 139.50) to ( 22.70, 165.60)] between AQUA and NPP Satellites:

Table of predicted SNOs over PacNW region for the next 30.0 days since TLE Epoch: 7/28/2017
Index Date (AQUA) Time (AQUA) AQUA Lat,Lon Date (NPP) Time (NPP) NPP Lat,Lon Distance(km) Time Diff (sec)
1 07/30/2017 03:31:26 22.70, 147.53 07/30/2017 03:27:56 25.48, 145.15 392.67 210
2 08/04/2017 15:59:02 22.60, 147.49 08/04/2017 16:01:41 23.24, 144.66 298.63 159
3 08/12/2017 15:09:35 22.62, 159.85 08/12/2017 15:11:04 23.16, 157.31 267.82 89
4 08/15/2017 03:31:25 22.67, 147.53 08/15/2017 03:27:56 24.72, 145.31 320.93 209
5 08/20/2017 15:59:01 22.59, 147.48 08/20/2017 16:01:54 23.24, 144.62 302.42 173




NCC Satellite Simultaneous Nadir Overpasses (SNOs) Prediction Service
